[[{"header":{"parameterUnit":"m.s-1","parameterCategory":1,"la1":30.2991,"la2":30.254,"lo1":-89.0895,"lo2":-89.0444,"dy":0.0017,"dx":0.0017,"nx":28,"ny":28,"refTime":"2024-06-19T09:00:00:Z","depth":0,"parameterNumber":2,"parameterNumberName":"U-component_of_WINDS"},"data":[0,0,0,0,0,0,0,0,0,0,0,0,0,0,0,0,0,0,0,0,0,0,0,0,0,0,0,0,0,0,0,0,0,0,0,0,0,0,0,0,0,0,0,0,0,0,0,0,0,0,0,0,0,0,0,0,0,0,-5.4566,-5.4565,0,-5.4492,-5.4491,-5.449,-5.4223,-5.4217,-5.4211,-5.4205,-5.4137,-5.4141,-5.4145,0,0,0,0,0,0,0,0,0,0,0,0,0,-5.4483,-5.4486,-5.4566,-5.4565,-5.4564,-5.4492,-5.4491,-5.449,-5.4224,-5.4216,-5.4209,-5.4202,-5.4136,-5.4141,-5.4145,0,0,0,0,0,0,0,0,0,0,0,0,0,-5.4475,-5.4487,-5.4566,-5.4422,-5.4408,-5.4492,-5.4491,-5.449,-5.4225,-5.4216,-5.4207,-5.4199,-5.4134,-5.414,-5.4146,-5.4365,0,0,-5.4164,-5.4166,0,0,0,0,0,0,0,0,-5.4476,-5.4479,-5.4444,-5.4432,-5.4417,-5.4357,-5.4436,-5.4448,-5.4228,-5.4295,-5.4205,-5.4194,-5.4218,-5.4217,-5.4223,-5.4362,-5.4359,-5.4164,-5.4168,-5.417,-5.4172,0,0,0,0,0,0,0,-5.4477,-5.448,-5.4536,-5.4444,-5.4428,-5.4363,-5.4352,-5.4437,-5.4309,-5.4289,-5.4269,-5.4263,-5.4209,-5.4218,-5.422,-5.4358,-5.4164,-5.4169,-5.4173,-5.4175,-5.4673,-5.4682,0,0,0,0,0,0,-5.4497,-5.4482,-5.4539,-5.4534,-5.4424,-5.4372,-5.436,-5.4386,-5.4307,-5.4287,-5.4271,-5.4251,-5.4213,-5.4213,-5.4216,-5.4468,-5.417,-5.4176,-5.4179,-5.4663,-5.4675,-5.4685,0,0,0,0,0,0,-5.4496,-5.4504,-5.4542,-5.4503,-5.4503,-5.4383,-5.4415,-5.4389,-5.4397,-5.4294,-5.4271,-5.4304,-5.4205,-5.4208,-5.4329,-5.4462,-5.4178,-5.4184,-5.4652,-5.4667,-5.468,-5.4974,0,0,0,0,0,0,-5.4495,-5.4506,-5.4586,-5.4507,-5.4506,-5.4655,-5.4423,-5.4394,-5.4407,-5.438,-5.4318,-5.43,-5.4199,-5.4322,-5.4335,-5.4465,-5.4188,-5.4639,-5.4658,-5.4675,-5.4952,-5.4997,-5.5035,0,0,0,0,0,-5.4493,-5.4674,-5.4592,-5.46,-5.4604,-5.4663,-5.4663,-5.4541,-5.4419,-5.45,-5.4434,-5.4301,-5.4445,-5.4337,-5.4349,-5.4483,-5.463,-5.4653,-5.4674,-5.4933,-5.4988,-5.5034,0,0,0,0,0,0,-5.4775,-5.4661,-5.4569,-5.4728,-5.4708,-5.4618,-5.4717,-5.4603,-5.4618,-5.4593,-5.4442,-5.4431,-5.4574,-5.454,-5.4422,-5.4691,-5.4515,-5.4541,-5.4708,-5.4759,-5.48,-5.4807,-5.4193,0,0,0,0,0,-5.4855,-5.4911,-5.4808,-5.496,-5.4953,-5.4838,-5.4859,-5.4766,-5.474,-5.473,-5.4672,-5.4654,-5.4694,-5.4724,-5.4756,-5.4944,-5.4928,-5.5042,-5.5084,-5.5119,-5.5144,-5.5242,-5.5292,-5.4757,-5.4757,-5.4757,0,0,-5.5023,-5.4967,-5.5012,-5.5015,-5.4988,-5.5051,-5.4832,-5.4908,-5.4955,-5.4742,-5.4853,-5.4811,-5.478,-5.4936,-5.5002,-5.4912,-5.5287,-5.5147,-5.5175,-5.5181,-5.527,-5.5321,-5.5366,-5.4772,-5.4769,-5.4767,0,0,-5.5361,-5.5324,-5.5446,-5.5422,-5.5382,-5.5304,-5.5334,-5.5261,-5.5224,-5.5332,-5.5174,-5.5228,-5.53,-5.5285,-5.5287,-5.5618,-5.5498,-5.5633,-5.5852,-5.595,-5.5992,-5.6028,-5.6149,-5.6194,-5.5657,-5.5658,-5.5658,0,-5.5576,-5.5662,-5.5524,-5.561,-5.5617,-5.5424,-5.5548,-5.5532,-5.5507,-5.5517,-5.5415,-5.5502,-5.5468,-5.5619,-5.57,-5.5707,-5.5738,-5.5641,-5.5996,-5.6032,-5.6064,-5.6177,-5.6223,-5.5675,-5.5673,-5.5671,-5.5669,0,-5.5929,-5.5991,-5.6095,-5.6072,-5.609,-5.6195,-5.6075,-5.611,-5.6016,-5.5949,-5.6062,-5.6014,-5.6032,-5.606,-5.597,-5.62,-5.6145,-5.6022,-5.5844,-5.6134,-5.6238,-5.628,-5.5699,-5.5693,-5.5688,-5.5684,0,0,-5.6446,-5.6342,-5.6383,-5.637,-5.6312,-5.6359,-5.6456,-5.6471,-5.6505,-5.6494,-5.6573,-5.6638,-5.6524,-5.6526,-5.6432,-5.6518,-5.6786,-5.6384,-5.6381,-5.6463,-5.7038,-5.7133,-5.7185,-5.6705,-5.6712,-5.6718,-5.7041,0,-5.6768,-5.6925,-5.6803,-5.6983,-5.704,-5.6857,-5.6941,-5.6917,-5.6857,-5.6898,-5.6831,-5.6881,-5.6725,-5.6726,-5.6802,-5.6738,-5.69,-5.6712,-5.678,-5.6784,-5.6796,-5.7239,-5.7339,-5.7646,-5.7081,-5.7088,-5.7093,0,-5.7167,-5.717,-5.7356,-5.7284,-5.7304,-5.7382,-5.7386,-5.7427,-5.7395,-5.7345,-5.7348,-5.7231,-5.7323,-5.7146,-5.7272,-5.7147,-5.7168,-5.714,-5.7149,-5.7153,-5.6958,-5.7258,-5.7741,-5.7789,-5.7155,-5.715,-5.7145,0,-5.7528,-5.7579,-5.7696,-5.7691,-5.761,-5.7669,-5.7639,-5.7597,-5.7615,-5.7619,-5.7629,-5.7646,-5.7656,-5.7673,-5.7565,-5.7445,-5.7706,-5.752,-5.767,-5.7674,-5.7736,-5.7734,-5.8233,-5.7746,-5.7745,-5.7744,-5.7743,0,-5.7903,-5.8024,-5.7857,-5.793,-5.8061,-5.7919,-5.8054,-5.8004,-5.7969,-5.8031,-5.7874,-5.7936,-5.7787,-5.7835,-5.7751,-5.787,-5.7875,-5.784,-5.7816,-5.7855,-5.786,-5.7869,-5.7846,-5.7756,-5.7754,-5.7751,-5.7749,0,-5.833,-5.8222,-5.8338,-5.8251,-5.8232,-5.8333,-5.8259,-5.8325,-5.8253,-5.8333,-5.8344,-5.8233,-5.8281,-5.8173,-5.8206,-5.8149,-5.832,-5.8261,-5.833,-5.8314,-5.8471,-5.8459,-5.8995,-5.9059,-5.853,-5.8535,-5.8539,0,-5.8577,-5.8666,-5.8587,-5.8616,-5.8593,-5.8642,-5.8657,-5.8522,-5.8546,-5.8515,-5.8586,-5.8619,-5.8639,-5.8724,-5.8649,-5.8673,-5.8616,-5.8802,-5.8619,-5.8656,-5.8622,-5.8619,-5.8628,-5.8841,-5.8847,-5.8853,-5.8857,0,-5.9029,-5.8971,-5.8998,-5.9008,-5.903,-5.9032,-5.9023,-5.9056,-5.8911,-5.8946,-5.8991,-5.9007,-5.9039,-5.9076,-5.9083,-5.9054,-5.8935,-5.8914,-5.8951,-5.8993,-5.9031,-5.9015,-5.8436,-5.8904,-5.8899,-5.8895,-5.8893,-5.8891,-5.9375,-5.9445,-5.9401,-5.9437,-5.9415,-5.941,-5.9466,-5.9401,-5.9435,-5.9449,-5.9367,-5.9431,-5.9397,-5.9393,-5.9377,-5.9427,-5.9343,-5.9396,-5.941,-5.9426,-5.9453,-5.902,-5.9428,-5.9426,-5.9425,-5.9423,-5.9422,0,-5.982,-5.9782,-5.9816,-5.9807,-5.9836,-5.9715,-5.9698,-5.9732,-5.9789,-5.9766,-5.9788,-5.9841,-5.9876,-5.9802,-5.9826,-5.988,-5.9826,-5.9891,-5.9887,-5.9883,-5.9525,-5.9492,-5.9935,-5.9935,-5.9935,-5.9935,-5.9935,-5.9934,-6.0056,-6.0168,-6.0106,-6.0207,-6.0167,-6.0226,-6.0228,-6.0223,-6.0204,-6.0269,-6.0296,-6.0246,-6.0204,-6.0223,-6.025,-6.0228,-6.0245,-6.0331,-6.0291,-5.9958,-5.9908,-5.9861,-5.9829,-6.0335,-6.0336,-6.0644,-6.0647,-6.0649]},{"header":{"parameterUnit":"m.s-1","parameterCategory":1,"la1":30.2991,"la2":30.254,"lo1":-89.0895,"lo2":-89.0444,"dy":0.0017,"dx":0.0017,"nx":28,"ny":28,"refTime":"2024-06-19T09:00:00:Z","depth":0,"parameterNumber":3,"parameterNumberName":"V-component_of_WINDS"},"data":[0,0,0,0,0,0,0,0,0,0,0,0,0,0,0,0,0,0,0,0,0,0,0,0,0,0,0,0,0,0,0,0,0,0,0,0,0,0,0,0,0,0,0,0,0,0,0,0,0,0,0,0,0,0,0,0,0,0,-1.6138,-1.6139,0,-1.6202,-1.6203,-1.6204,-1.6266,-1.6267,-1.6268,-1.6268,-1.6328,-1.6329,-1.633,0,0,0,0,0,0,0,0,0,0,0,0,0,-1.6062,-1.6063,-1.6138,-1.6139,-1.6139,-1.6202,-1.6203,-1.6204,-1.6266,-1.6267,-1.6268,-1.6269,-1.6328,-1.6329,-1.633,0,0,0,0,0,0,0,0,0,0,0,0,0,-1.6107,-1.6063,-1.6138,-1.6178,-1.6182,-1.6202,-1.6203,-1.6204,-1.6266,-1.6267,-1.6268,-1.6269,-1.6328,-1.6329,-1.633,-1.6313,0,0,-1.6334,-1.6334,0,0,0,0,0,0,0,0,-1.6104,-1.611,-1.6171,-1.6175,-1.618,-1.6228,-1.6198,-1.624,-1.6265,-1.6234,-1.6268,-1.627,-1.6293,-1.6297,-1.6307,-1.6316,-1.6318,-1.6334,-1.6335,-1.6335,-1.6335,0,0,0,0,0,0,0,-1.6101,-1.6107,-1.6163,-1.6172,-1.6177,-1.6191,-1.6199,-1.6206,-1.6256,-1.6237,-1.6241,-1.6248,-1.6296,-1.6305,-1.6308,-1.6319,-1.6334,-1.6335,-1.6336,-1.6336,-1.6315,-1.6314,0,0,0,0,0,0,-1.6093,-1.6104,-1.6161,-1.6165,-1.6145,-1.6191,-1.62,-1.6211,-1.6256,-1.6264,-1.6247,-1.6251,-1.6302,-1.6307,-1.6311,-1.6292,-1.6335,-1.6336,-1.6337,-1.6316,-1.6315,-1.6313,0,0,0,0,0,0,-1.6091,-1.6097,-1.6158,-1.6136,-1.6145,-1.6191,-1.6203,-1.6212,-1.6221,-1.6264,-1.6272,-1.6248,-1.6304,-1.6309,-1.6312,-1.6295,-1.6337,-1.6338,-1.6318,-1.6316,-1.6314,-1.6255,0,0,0,0,0,0,-1.6088,-1.6096,-1.6092,-1.6136,-1.6146,-1.616,-1.6202,-1.6212,-1.6224,-1.6229,-1.6267,-1.6274,-1.6305,-1.631,-1.6313,-1.6297,-1.6339,-1.6319,-1.6317,-1.6315,-1.6258,-1.6251,-1.6244,0,0,0,0,0,-1.6086,-1.6072,-1.6091,-1.6098,-1.6142,-1.6159,-1.6165,-1.6202,-1.6222,-1.6217,-1.6244,-1.6273,-1.6297,-1.6309,-1.6314,-1.6298,-1.6321,-1.6318,-1.6315,-1.6261,-1.6252,-1.6245,0,0,0,0,0,0,-1.6023,-1.6078,-1.6101,-1.6101,-1.6125,-1.617,-1.6164,-1.6192,-1.6209,-1.6213,-1.6257,-1.6265,-1.6262,-1.6281,-1.6294,-1.6283,-1.6312,-1.631,-1.627,-1.6262,-1.6255,-1.625,-1.634,0,0,0,0,0,-1.6009,-1.6021,-1.6068,-1.6064,-1.6075,-1.6117,-1.6126,-1.6153,-1.6179,-1.6189,-1.6217,-1.6239,-1.6251,-1.6258,-1.6272,-1.6262,-1.6269,-1.6253,-1.6246,-1.624,-1.6237,-1.623,-1.6223,-1.6304,-1.6304,-1.6304,0,0,-1.5981,-1.6013,-1.6017,-1.6052,-1.6074,-1.6082,-1.6125,-1.6133,-1.6139,-1.619,-1.6194,-1.6215,-1.6242,-1.6238,-1.6237,-1.6253,-1.6217,-1.6237,-1.6232,-1.6232,-1.6227,-1.6219,-1.6212,-1.6302,-1.6302,-1.6302,0,0,-1.5933,-1.596,-1.5958,-1.5979,-1.6012,-1.6041,-1.604,-1.6081,-1.6097,-1.6103,-1.614,-1.6147,-1.6168,-1.6185,-1.6197,-1.6155,-1.6181,-1.6158,-1.6121,-1.6114,-1.6108,-1.6102,-1.6084,-1.6078,-1.6155,-1.6155,-1.6155,0,-1.5893,-1.591,-1.5953,-1.5958,-1.5971,-1.602,-1.6016,-1.6034,-1.6069,-1.6076,-1.6094,-1.612,-1.6142,-1.6141,-1.6131,-1.614,-1.6138,-1.6153,-1.6106,-1.6101,-1.6096,-1.6079,-1.6073,-1.6152,-1.6152,-1.6152,-1.6153,0,-1.5857,-1.5868,-1.5862,-1.5896,-1.5909,-1.591,-1.5951,-1.5958,-1.5984,-1.6009,-1.6012,-1.6041,-1.606,-1.6063,-1.6087,-1.6065,-1.6073,-1.6098,-1.6128,-1.6084,-1.6069,-1.6064,-1.6147,-1.6148,-1.6149,-1.615,0,0,-1.577,-1.5828,-1.5825,-1.584,-1.5881,-1.5888,-1.5891,-1.5912,-1.5915,-1.5938,-1.5939,-1.5955,-1.5978,-1.5991,-1.6018,-1.6013,-1.5974,-1.6038,-1.6039,-1.6022,-1.5947,-1.5926,-1.5918,-1.5993,-1.5992,-1.5991,-1.5944,0,-1.5726,-1.5735,-1.5774,-1.577,-1.5779,-1.5825,-1.5826,-1.5849,-1.5873,-1.5882,-1.5908,-1.5918,-1.5949,-1.5957,-1.5954,-1.5979,-1.5959,-1.5984,-1.5991,-1.599,-1.598,-1.5911,-1.5889,-1.5843,-1.5939,-1.5938,-1.5937,0,-1.5677,-1.5697,-1.5695,-1.5733,-1.5738,-1.5739,-1.576,-1.577,-1.5796,-1.5814,-1.5828,-1.5859,-1.5861,-1.5892,-1.5894,-1.5909,-1.5915,-1.5928,-1.5927,-1.5926,-1.5959,-1.5906,-1.583,-1.5822,-1.5929,-1.593,-1.593,0,-1.5609,-1.5637,-1.5638,-1.565,-1.5696,-1.5695,-1.5714,-1.5742,-1.5752,-1.577,-1.5776,-1.5793,-1.5802,-1.5814,-1.5847,-1.5867,-1.5844,-1.5878,-1.5856,-1.5854,-1.5846,-1.5846,-1.5767,-1.5855,-1.5855,-1.5855,-1.5855,0,-1.5555,-1.5551,-1.5609,-1.5609,-1.5605,-1.5649,-1.5643,-1.5665,-1.569,-1.5694,-1.5735,-1.5737,-1.5783,-1.5789,-1.5816,-1.5811,-1.5816,-1.5828,-1.5834,-1.5822,-1.582,-1.5824,-1.5827,-1.5853,-1.5854,-1.5854,-1.5854,0,-1.5478,-1.5517,-1.5521,-1.5565,-1.5576,-1.557,-1.5606,-1.5607,-1.5634,-1.5638,-1.5641,-1.5683,-1.5692,-1.5728,-1.5746,-1.5764,-1.575,-1.5765,-1.5741,-1.5745,-1.5719,-1.572,-1.5638,-1.5628,-1.5725,-1.5724,-1.5723,0,-1.5439,-1.5437,-1.5481,-1.5487,-1.5505,-1.5515,-1.5525,-1.5568,-1.5576,-1.5606,-1.5602,-1.5616,-1.5629,-1.5642,-1.5672,-1.5685,-1.5699,-1.5669,-1.5701,-1.5688,-1.5694,-1.5693,-1.5691,-1.5661,-1.566,-1.5659,-1.5658,0,-1.5365,-1.5385,-1.5399,-1.5419,-1.5431,-1.5449,-1.5468,-1.5471,-1.5518,-1.5525,-1.5537,-1.5547,-1.5566,-1.5578,-1.5596,-1.5613,-1.5641,-1.5648,-1.5643,-1.5629,-1.5614,-1.5619,-1.5719,-1.5649,-1.565,-1.5651,-1.5651,-1.5651,-1.5304,-1.5303,-1.5334,-1.5348,-1.5368,-1.5385,-1.5388,-1.5415,-1.5426,-1.5446,-1.5471,-1.5478,-1.5503,-1.5532,-1.5546,-1.5551,-1.5567,-1.5561,-1.5559,-1.5555,-1.5548,-1.5616,-1.5555,-1.5555,-1.5556,-1.5556,-1.5556,0,-1.5229,-1.5251,-1.5264,-1.5291,-1.5301,-1.5331,-1.5354,-1.536,-1.5367,-1.5389,-1.5401,-1.5413,-1.5424,-1.5456,-1.547,-1.5467,-1.5481,-1.5469,-1.5468,-1.5471,-1.5535,-1.5536,-1.5458,-1.5458,-1.5458,-1.5458,-1.5458,-1.5458,-1.5191,-1.5191,-1.5214,-1.5223,-1.5245,-1.5254,-1.5264,-1.528,-1.5297,-1.5309,-1.532,-1.5341,-1.5366,-1.5382,-1.5393,-1.5402,-1.5403,-1.5386,-1.5399,-1.5457,-1.5466,-1.5475,-1.5477,-1.5387,-1.5387,-1.5334,-1.5334,-1.5333]}]]